Starlink 32805

operational
NORAD ID: 62740 Int'l Des: 2025-014 Owner: SPXS Country: US Constellation: starlink
LEOCIRCULAR

Über Starlink 32805

Beschreibung wird geladen...

Live-Position

3D-Globus wird geladen...

Nächste Überflüge

Höhenverlauf

Altitude vs Time

uPlot chart will show altitude changes over time

Zweizeiliger Elementsatz

1 62740U 25014F 25353.13817547 .00021922 00000-0 80313-3 0 9999
2 62740 42.9994 249.6876 0001367 272.0004 88.0691 15.27606402 50934
Epoch: 19. Dez. 2025 • Age: 35 hours

Aktueller Status

Höhe 485.3 km
Geschwindigkeit 7.62 km/s
Subsatellitenpunkt -14.21°S, 126.87°E
Startdatum 21. Jan. 2025
Alter 0.9 years
Typ internet

Technische Details

Klassifizierung Payload
Masse 730.00 kg
Trockenmasse 700.00 kg
Gesamtmasse 730.00 kg
Länge 0.30 m
Durchmesser 4.10 m
Spannweite 29.00 m
Form Box + pan
Hersteller SPXS
Bus-Typ Starlink V2M
Phasenstatus In Orbit
Besitzer/Staat SPXS/US

Große Konstellationen

Loading constellations...